owner,sensor,date,latitude,longitude,vertical_datum,sea_water_practical_salinity,qcFlag 
ENP,ioos.station.NOAA.NDBC:LBRF1:1,2017-07-01T00:00:00Z,25.4840,-81.1330,1.5,7.09,1111122 
ENP,ioos.station.NOAA.NDBC:LBRF1:1,2017-07-01T03:00:00Z,25.4840,-81.1330,1.5,9.2,11111222 
ENP,ioos.station.NOAA.NDBC:LBRF1:1,2017-07-01T06:00:00Z,25.4840,-81.1330,1.5,3.3,1111122 
ENP,ioos.station.NOAA.NDBC:LBRF1:1,2017-07-01T07:00:00Z,25.4840,-81.1330,1.5,3.0,11111222 
ENP,ioos.station.NOAA.NDBC:LBRF1:1,2017-07-01T08:00:00Z,25.4840,-81.1330,1.5,2.9,11111222 
ENP,ioos.station.NOAA.NDBC:LBRF1:1,2017-07-01T10:00:00Z,25.4840,-81.1330,1.5,2.78,1111122 
ENP,ioos.station.NOAA.NDBC:LBRF1:1,2017-07-01T11:00:00Z,25.4840,-81.1330,1.5,2.8,11111222 
ENP,ioos.station.NOAA.NDBC:LBRF1:1,2017-07-01T13:00:00Z,25.4840,-81.1330,1.5,8.8,11111222 
ENP,ioos.station.NOAA.NDBC:LBRF1:1,2017-07-01T14:00:00Z,25.4840,-81.1330,1.5,15.5,11111222 
ENP,ioos.station.NOAA.NDBC:LBRF1:1,2017-07-01T15:00:00Z,25.4840,-81.1330,1.5,19.2,11111222 
ENP,ioos.station.NOAA.NDBC:LBRF1:1,2017-07-01T16:00:00Z,25.4840,-81.1330,1.5,15.9,11111222 
ENP,ioos.station.NOAA.NDBC:LBRF1:1,2017-07-01T17:00:00Z,25.4840,-81.1330,1.5,7.3,11111222 
ENP,ioos.station.NOAA.NDBC:LBRF1:1,2017-07-01T18:00:00Z,25.4840,-81.1330,1.5,4.26,1111122 
ENP,ioos.station.NOAA.NDBC:LBRF1:1,2017-07-01T19:00:00Z,25.4840,-81.1330,1.5,3.2,11111222 
ENP,ioos.station.NOAA.NDBC:LBRF1:1,2017-07-01T20:00:00Z,25.4840,-81.1330,1.5,3.08,1111122 
ENP,ioos.station.NOAA.NDBC:LBRF1:1,2017-07-01T21:00:00Z,25.4840,-81.1330,1.5,2.93,1111122 
ENP,ioos.station.NOAA.NDBC:LBRF1:1,2017-07-01T22:00:00Z,25.4840,-81.1330,1.5,2.9,11111222 
ENP,ioos.station.NOAA.NDBC:LBRF1:1,2017-07-01T23:00:00Z,25.4840,-81.1330,1.5,2.9,11111222 
ENP,ioos.station.NOAA.NDBC:LBRF1:1,2017-07-02T00:00:00Z,25.4840,-81.1330,1.5,4.7,11111222 
ENP,ioos.station.NOAA.NDBC:LBRF1:1,2017-07-02T06:00:00Z,25.4840,-81.1330,1.5,3.1,1111122 
ENP,ioos.station.NOAA.NDBC:LBRF1:1,2017-07-02T07:00:00Z,25.4840,-81.1330,1.5,2.9,11111222 
ENP,ioos.station.NOAA.NDBC:LBRF1:1,2017-07-02T08:00:00Z,25.4840,-81.1330,1.5,2.9,11111222 
ENP,ioos.station.NOAA.NDBC:LBRF1:1,2017-07-02T10:00:00Z,25.4840,-81.1330,1.5,2.83,1111122 
ENP,ioos.station.NOAA.NDBC:LBRF1:1,2017-07-02T11:00:00Z,25.4840,-81.1330,1.5,2.8,11111222 
ENP,ioos.station.NOAA.NDBC:LBRF1:1,2017-07-02T12:00:00Z,25.4840,-81.1330,1.5,5.05,1111122 
ENP,ioos.station.NOAA.NDBC:LBRF1:1,2017-07-02T13:00:00Z,25.4840,-81.1330,1.5,7.52,1111122 
ENP,ioos.station.NOAA.NDBC:LBRF1:1,2017-07-02T14:00:00Z,25.4840,-81.1330,1.5,15.1,11111222 
ENP,ioos.station.NOAA.NDBC:LBRF1:1,2017-07-02T15:00:00Z,25.4840,-81.1330,1.5,19.86,1111122 
ENP,ioos.station.NOAA.NDBC:LBRF1:1,2017-07-02T16:00:00Z,25.4840,-81.1330,1.5,20.1,11111222 
ENP,ioos.station.NOAA.NDBC:LBRF1:1,2017-07-02T17:00:00Z,25.4840,-81.1330,1.5,14.8,11111222 
ENP,ioos.station.NOAA.NDBC:LBRF1:1,2017-07-02T18:00:00Z,25.4840,-81.1330,1.5,6.9,11111222 
ENP,ioos.station.NOAA.NDBC:LBRF1:1,2017-07-02T19:00:00Z,25.4840,-81.1330,1.5,4.19,1111122 
ENP,ioos.station.NOAA.NDBC:LBRF1:1,2017-07-02T21:00:00Z,25.4840,-81.1330,1.5,3.07,1111122 
ENP,ioos.station.NOAA.NDBC:LBRF1:1,2017-07-02T22:00:00Z,25.4840,-81.1330,1.5,3.02,1111122 
ENP,ioos.station.NOAA.NDBC:LBRF1:1,2017-07-02T23:00:00Z,25.4840,-81.1330,1.5,2.97,1111122 
ENP,ioos.station.NOAA.NDBC:LBRF1:1,2017-07-03T00:00:00Z,25.4840,-81.1330,1.5,3.0,11111222 
ENP,ioos.station.NOAA.NDBC:LBRF1:1,2017-07-03T03:00:00Z,25.4840,-81.1330,1.5,8.7,11111222 
ENP,ioos.station.NOAA.NDBC:LBRF1:1,2017-07-03T06:00:00Z,25.4840,-81.1330,1.5,5.47,1111122 
ENP,ioos.station.NOAA.NDBC:LBRF1:1,2017-07-03T07:00:00Z,25.4840,-81.1330,1.5,3.85,1111122 
ENP,ioos.station.NOAA.NDBC:LBRF1:1,2017-07-03T08:00:00Z,25.4840,-81.1330,1.5,3.26,1111122 
ENP,ioos.station.NOAA.NDBC:LBRF1:1,2017-07-03T10:00:00Z,25.4840,-81.1330,1.5,2.95,1111122 
ENP,ioos.station.NOAA.NDBC:LBRF1:1,2017-07-03T11:00:00Z,25.4840,-81.1330,1.5,2.88,1111122 
ENP,ioos.station.NOAA.NDBC:LBRF1:1,2017-07-03T13:00:00Z,25.4840,-81.1330,1.5,7.89,1111122 
ENP,ioos.station.NOAA.NDBC:LBRF1:1,2017-07-03T14:00:00Z,25.4840,-81.1330,1.5,9.34,1111122 
ENP,ioos.station.NOAA.NDBC:LBRF1:1,2017-07-03T15:00:00Z,25.4840,-81.1330,1.5,17.48,1111122 
ENP,ioos.station.NOAA.NDBC:LBRF1:1,2017-07-03T16:00:00Z,25.4840,-81.1330,1.5,22.34,1111122 
ENP,ioos.station.NOAA.NDBC:LBRF1:1,2017-07-03T17:00:00Z,25.4840,-81.1330,1.5,23.95,1111122 
ENP,ioos.station.NOAA.NDBC:LBRF1:1,2017-07-03T18:00:00Z,25.4840,-81.1330,1.5,21.44,1111122 
ENP,ioos.station.NOAA.NDBC:LBRF1:1,2017-07-03T19:00:00Z,25.4840,-81.1330,1.5,11.9,11111222 
ENP,ioos.station.NOAA.NDBC:LBRF1:1,2017-07-03T20:00:00Z,25.4840,-81.1330,1.5,7.28,1111122 
ENP,ioos.station.NOAA.NDBC:LBRF1:1,2017-07-03T21:00:00Z,25.4840,-81.1330,1.5,4.57,1111122 
ENP,ioos.station.NOAA.NDBC:LBRF1:1,2017-07-03T22:00:00Z,25.4840,-81.1330,1.5,3.33,1111122 
ENP,ioos.station.NOAA.NDBC:LBRF1:1,2017-07-03T23:00:00Z,25.4840,-81.1330,1.5,3.17,1111122 
ENP,ioos.station.NOAA.NDBC:LBRF1:1,2017-07-04T00:00:00Z,25.4840,-81.1330,1.5,3.09,1111122 
ENP,ioos.station.NOAA.NDBC:LBRF1:1,2017-07-04T03:00:00Z,25.4840,-81.1330,1.5,3.2,11111222 
ENP,ioos.station.NOAA.NDBC:LBRF1:1,2017-07-04T06:00:00Z,25.4840,-81.1330,1.5,10.48,1111122 
ENP,ioos.station.NOAA.NDBC:LBRF1:1,2017-07-04T07:00:00Z,25.4840,-81.1330,1.5,4.9,11111222 
ENP,ioos.station.NOAA.NDBC:LBRF1:1,2017-07-04T08:00:00Z,25.4840,-81.1330,1.5,3.6,11111222 
ENP,ioos.station.NOAA.NDBC:LBRF1:1,2017-07-04T10:00:00Z,25.4840,-81.1330,1.5,3.3,11111222 
ENP,ioos.station.NOAA.NDBC:LBRF1:1,2017-07-04T11:00:00Z,25.4840,-81.1330,1.5,3.2,11111222 
ENP,ioos.station.NOAA.NDBC:LBRF1:1,2017-07-04T12:00:00Z,25.4840,-81.1330,1.5,3.1,11111222 
ENP,ioos.station.NOAA.NDBC:LBRF1:1,2017-07-04T13:00:00Z,25.4840,-81.1330,1.5,8.0,11111222 
ENP,ioos.station.NOAA.NDBC:LBRF1:1,2017-07-04T14:00:00Z,25.4840,-81.1330,1.5,10.8,11111222 
ENP,ioos.station.NOAA.NDBC:LBRF1:1,2017-07-04T15:00:00Z,25.4840,-81.1330,1.5,13.61,1111122 
ENP,ioos.station.NOAA.NDBC:LBRF1:1,2017-07-04T16:00:00Z,25.4840,-81.1330,1.5,20.34,1111122 
ENP,ioos.station.NOAA.NDBC:LBRF1:1,2017-07-04T17:00:00Z,25.4840,-81.1330,1.5,23.32,1111122 
ENP,ioos.station.NOAA.NDBC:LBRF1:1,2017-07-04T18:00:00Z,25.4840,-81.1330,1.5,22.97,1111122 
ENP,ioos.station.NOAA.NDBC:LBRF1:1,2017-07-04T19:00:00Z,25.4840,-81.1330,1.5,15.46,1111122 
ENP,ioos.station.NOAA.NDBC:LBRF1:1,2017-07-04T21:00:00Z,25.4840,-81.1330,1.5,7.0,11111222 
ENP,ioos.station.NOAA.NDBC:LBRF1:1,2017-07-04T22:00:00Z,25.4840,-81.1330,1.5,4.1,11111222 
ENP,ioos.station.NOAA.NDBC:LBRF1:1,2017-07-04T23:00:00Z,25.4840,-81.1330,1.5,3.3,11111222 
ENP,ioos.station.NOAA.NDBC:LBRF1:1,2017-07-05T00:00:00Z,25.4840,-81.1330,1.5,3.1,11111222 
ENP,ioos.station.NOAA.NDBC:LBRF1:1,2017-07-05T03:00:00Z,25.4840,-81.1330,1.5,2.9,11111222 
ENP,ioos.station.NOAA.NDBC:LBRF1:1,2017-07-05T06:00:00Z,25.4840,-81.1330,1.5,4.66,1111122 
ENP,ioos.station.NOAA.NDBC:LBRF1:1,2017-07-05T07:00:00Z,25.4840,-81.1330,1.5,5.82,1111122 
ENP,ioos.station.NOAA.NDBC:LBRF1:1,2017-07-05T08:00:00Z,25.4840,-81.1330,1.5,3.8,11111222 
ENP,ioos.station.NOAA.NDBC:LBRF1:1,2017-07-05T10:00:00Z,25.4840,-81.1330,1.5,3.18,1111122 
ENP,ioos.station.NOAA.NDBC:LBRF1:1,2017-07-05T11:00:00Z,25.4840,-81.1330,1.5,3.1,1111122 
ENP,ioos.station.NOAA.NDBC:LBRF1:1,2017-07-05T13:00:00Z,25.4840,-81.1330,1.5,2.94,1111122 
ENP,ioos.station.NOAA.NDBC:LBRF1:1,2017-07-05T14:00:00Z,25.4840,-81.1330,1.5,2.97,1111122 
ENP,ioos.station.NOAA.NDBC:LBRF1:1,2017-07-05T15:00:00Z,25.4840,-81.1330,1.5,5.9,11111222 
ENP,ioos.station.NOAA.NDBC:LBRF1:1,2017-07-05T16:00:00Z,25.4840,-81.1330,1.5,10.0,11111222 
ENP,ioos.station.NOAA.NDBC:LBRF1:1,2017-07-05T17:00:00Z,25.4840,-81.1330,1.5,19.0,11111222 
ENP,ioos.station.NOAA.NDBC:LBRF1:1,2017-07-05T18:00:00Z,25.4840,-81.1330,1.5,22.3,11111222 
ENP,ioos.station.NOAA.NDBC:LBRF1:1,2017-07-05T19:00:00Z,25.4840,-81.1330,1.5,22.3,11111222 
ENP,ioos.station.NOAA.NDBC:LBRF1:1,2017-07-05T20:00:00Z,25.4840,-81.1330,1.5,11.5,11111222 
ENP,ioos.station.NOAA.NDBC:LBRF1:1,2017-07-05T21:00:00Z,25.4840,-81.1330,1.5,6.3,11111222 
ENP,ioos.station.NOAA.NDBC:LBRF1:1,2017-07-05T22:00:00Z,25.4840,-81.1330,1.5,3.84,1111122 
ENP,ioos.station.NOAA.NDBC:LBRF1:1,2017-07-05T23:00:00Z,25.4840,-81.1330,1.5,3.1,11111222 
ENP,ioos.station.NOAA.NDBC:LBRF1:1,2017-07-06T00:00:00Z,25.4840,-81.1330,1.5,2.9,11111222 
ENP,ioos.station.NOAA.NDBC:LBRF1:1,2017-07-06T03:00:00Z,25.4840,-81.1330,1.5,2.7,11111222 
ENP,ioos.station.NOAA.NDBC:LBRF1:1,2017-07-06T06:00:00Z,25.4840,-81.1330,1.5,3.22,1111122 
ENP,ioos.station.NOAA.NDBC:LBRF1:1,2017-07-06T07:00:00Z,25.4840,-81.1330,1.5,6.13,1111122 
ENP,ioos.station.NOAA.NDBC:LBRF1:1,2017-07-06T08:00:00Z,25.4840,-81.1330,1.5,5.69,1111122 
ENP,ioos.station.NOAA.NDBC:LBRF1:1,2017-07-06T10:00:00Z,25.4840,-81.1330,1.5,3.17,1111122 
ENP,ioos.station.NOAA.NDBC:LBRF1:1,2017-07-06T11:00:00Z,25.4840,-81.1330,1.5,3.0,11111222 
ENP,ioos.station.NOAA.NDBC:LBRF1:1,2017-07-06T12:00:00Z,25.4840,-81.1330,1.5,2.88,1111122 
ENP,ioos.station.NOAA.NDBC:LBRF1:1,2017-07-06T13:00:00Z,25.4840,-81.1330,1.5,2.8,11111222 
ENP,ioos.station.NOAA.NDBC:LBRF1:1,2017-07-06T14:00:00Z,25.4840,-81.1330,1.5,2.7,11111222 
ENP,ioos.station.NOAA.NDBC:LBRF1:1,2017-07-06T15:00:00Z,25.4840,-81.1330,1.5,3.2,11111222 
ENP,ioos.station.NOAA.NDBC:LBRF1:1,2017-07-06T16:00:00Z,25.4840,-81.1330,1.5,6.1,11111222 
ENP,ioos.station.NOAA.NDBC:LBRF1:1,2017-07-06T17:00:00Z,25.4840,-81.1330,1.5,14.7,11111222 
ENP,ioos.station.NOAA.NDBC:LBRF1:1,2017-07-06T18:00:00Z,25.4840,-81.1330,1.5,21.4,11111222 
ENP,ioos.station.NOAA.NDBC:LBRF1:1,2017-07-06T19:00:00Z,25.4840,-81.1330,1.5,23.5,11111222 
ENP,ioos.station.NOAA.NDBC:LBRF1:1,2017-07-06T21:00:00Z,25.4840,-81.1330,1.5,15.1,11111222 
ENP,ioos.station.NOAA.NDBC:LBRF1:1,2017-07-06T22:00:00Z,25.4840,-81.1330,1.5,9.9,11111222 
ENP,ioos.station.NOAA.NDBC:LBRF1:1,2017-07-06T23:00:00Z,25.4840,-81.1330,1.5,5.7,11111222 
ENP,ioos.station.NOAA.NDBC:LBRF1:1,2017-07-07T00:00:00Z,25.4840,-81.1330,1.5,3.5,11111222 
ENP,ioos.station.NOAA.NDBC:LBRF1:1,2017-07-07T03:00:00Z,25.4840,-81.1330,1.5,2.7,11111222 
ENP,ioos.station.NOAA.NDBC:LBRF1:1,2017-07-07T06:00:00Z,25.4840,-81.1330,1.5,3.2,11111222 
ENP,ioos.station.NOAA.NDBC:LBRF1:1,2017-07-07T07:00:00Z,25.4840,-81.1330,1.5,6.3,11111222 
ENP,ioos.station.NOAA.NDBC:LBRF1:1,2017-07-07T08:00:00Z,25.4840,-81.1330,1.5,8.7,11111222 
ENP,ioos.station.NOAA.NDBC:LBRF1:1,2017-07-07T10:00:00Z,25.4840,-81.1330,1.5,3.95,1111122 
ENP,ioos.station.NOAA.NDBC:LBRF1:1,2017-07-07T11:00:00Z,25.4840,-81.1330,1.5,3.3,11111222 
ENP,ioos.station.NOAA.NDBC:LBRF1:1,2017-07-07T13:00:00Z,25.4840,-81.1330,1.5,2.91,1111122 
ENP,ioos.station.NOAA.NDBC:LBRF1:1,2017-07-07T14:00:00Z,25.4840,-81.1330,1.5,2.9,11111222 
ENP,ioos.station.NOAA.NDBC:LBRF1:1,2017-07-07T15:00:00Z,25.4840,-81.1330,1.5,3.0,11111222 
ENP,ioos.station.NOAA.NDBC:LBRF1:1,2017-07-07T16:00:00Z,25.4840,-81.1330,1.5,6.52,1111122 
ENP,ioos.station.NOAA.NDBC:LBRF1:1,2017-07-07T17:00:00Z,25.4840,-81.1330,1.5,11.7,11111222 
ENP,ioos.station.NOAA.NDBC:LBRF1:1,2017-07-07T18:00:00Z,25.4840,-81.1330,1.5,19.8,11111222 
ENP,ioos.station.NOAA.NDBC:LBRF1:1,2017-07-07T19:00:00Z,25.4840,-81.1330,1.5,21.8,11111222 
ENP,ioos.station.NOAA.NDBC:LBRF1:1,2017-07-07T20:00:00Z,25.4840,-81.1330,1.5,22.06,1111122 
ENP,ioos.station.NOAA.NDBC:LBRF1:1,2017-07-07T21:00:00Z,25.4840,-81.1330,1.5,15.53,1111122 
ENP,ioos.station.NOAA.NDBC:LBRF1:1,2017-07-07T22:00:00Z,25.4840,-81.1330,1.5,12.4,11111222 
ENP,ioos.station.NOAA.NDBC:LBRF1:1,2017-07-07T23:00:00Z,25.4840,-81.1330,1.5,7.06,1111122 
ENP,ioos.station.NOAA.NDBC:LBRF1:1,2017-07-08T00:00:00Z,25.4840,-81.1330,1.5,4.46,1111122 
ENP,ioos.station.NOAA.NDBC:LBRF1:1,2017-07-08T06:00:00Z,25.4840,-81.1330,1.5,2.9,1111122 
ENP,ioos.station.NOAA.NDBC:LBRF1:1,2017-07-08T07:00:00Z,25.4840,-81.1330,1.5,5.8,11111222 
ENP,ioos.station.NOAA.NDBC:LBRF1:1,2017-07-08T08:00:00Z,25.4840,-81.1330,1.5,11.1,11111222 
ENP,ioos.station.NOAA.NDBC:LBRF1:1,2017-07-08T10:00:00Z,25.4840,-81.1330,1.5,8.8,11111222 
ENP,ioos.station.NOAA.NDBC:LBRF1:1,2017-07-08T11:00:00Z,25.4840,-81.1330,1.5,5.1,11111222 
ENP,ioos.station.NOAA.NDBC:LBRF1:1,2017-07-08T12:00:00Z,25.4840,-81.1330,1.5,3.4,11111222 
ENP,ioos.station.NOAA.NDBC:LBRF1:1,2017-07-08T13:00:00Z,25.4840,-81.1330,1.5,3.1,11111222 
ENP,ioos.station.NOAA.NDBC:LBRF1:1,2017-07-08T14:00:00Z,25.4840,-81.1330,1.5,3.1,11111222 
ENP,ioos.station.NOAA.NDBC:LBRF1:1,2017-07-08T15:00:00Z,25.4840,-81.1330,1.5,3.0,11111222 
ENP,ioos.station.NOAA.NDBC:LBRF1:1,2017-07-08T16:00:00Z,25.4840,-81.1330,1.5,3.1,11111222 
ENP,ioos.station.NOAA.NDBC:LBRF1:1,2017-07-08T17:00:00Z,25.4840,-81.1330,1.5,7.5,11111222 
ENP,ioos.station.NOAA.NDBC:LBRF1:1,2017-07-08T18:00:00Z,25.4840,-81.1330,1.5,15.6,1111122 
ENP,ioos.station.NOAA.NDBC:LBRF1:1,2017-07-08T19:00:00Z,25.4840,-81.1330,1.5,20.96,1111122 
ENP,ioos.station.NOAA.NDBC:LBRF1:1,2017-07-08T21:00:00Z,25.4840,-81.1330,1.5,22.0,11111222 
ENP,ioos.station.NOAA.NDBC:LBRF1:1,2017-07-08T22:00:00Z,25.4840,-81.1330,1.5,15.8,11111222 
ENP,ioos.station.NOAA.NDBC:LBRF1:1,2017-07-08T23:00:00Z,25.4840,-81.1330,1.5,12.23,1111122 
ENP,ioos.station.NOAA.NDBC:LBRF1:1,2017-07-09T00:00:00Z,25.4840,-81.1330,1.5,6.54,1111122 
ENP,ioos.station.NOAA.NDBC:LBRF1:1,2017-07-09T03:00:00Z,25.4840,-81.1330,1.5,3.0,11111222 
ENP,ioos.station.NOAA.NDBC:LBRF1:1,2017-07-09T06:00:00Z,25.4840,-81.1330,1.5,2.86,1111122 
ENP,ioos.station.NOAA.NDBC:LBRF1:1,2017-07-09T07:00:00Z,25.4840,-81.1330,1.5,3.0,11111222 
ENP,ioos.station.NOAA.NDBC:LBRF1:1,2017-07-09T08:00:00Z,25.4840,-81.1330,1.5,6.8,11111222 
ENP,ioos.station.NOAA.NDBC:LBRF1:1,2017-07-09T10:00:00Z,25.4840,-81.1330,1.5,10.1,1111122 
ENP,ioos.station.NOAA.NDBC:LBRF1:1,2017-07-09T11:00:00Z,25.4840,-81.1330,1.5,4.6,11111222 
ENP,ioos.station.NOAA.NDBC:LBRF1:1,2017-07-09T13:00:00Z,25.4840,-81.1330,1.5,3.13,1111122 
ENP,ioos.station.NOAA.NDBC:LBRF1:1,2017-07-09T14:00:00Z,25.4840,-81.1330,1.5,3.07,1111122 
ENP,ioos.station.NOAA.NDBC:LBRF1:1,2017-07-09T15:00:00Z,25.4840,-81.1330,1.5,2.97,1111122 
ENP,ioos.station.NOAA.NDBC:LBRF1:1,2017-07-09T16:00:00Z,25.4840,-81.1330,1.5,2.95,1111122 
ENP,ioos.station.NOAA.NDBC:LBRF1:1,2017-07-09T17:00:00Z,25.4840,-81.1330,1.5,3.69,1111122 
ENP,ioos.station.NOAA.NDBC:LBRF1:1,2017-07-09T18:00:00Z,25.4840,-81.1330,1.5,8.1,1111122 
ENP,ioos.station.NOAA.NDBC:LBRF1:1,2017-07-09T19:00:00Z,25.4840,-81.1330,1.5,18.09,1111122 
ENP,ioos.station.NOAA.NDBC:LBRF1:1,2017-07-09T20:00:00Z,25.4840,-81.1330,1.5,21.23,1111122 
ENP,ioos.station.NOAA.NDBC:LBRF1:1,2017-07-09T21:00:00Z,25.4840,-81.1330,1.5,22.27,1111122 
ENP,ioos.station.NOAA.NDBC:LBRF1:1,2017-07-09T22:00:00Z,25.4840,-81.1330,1.5,21.58,1111122 
ENP,ioos.station.NOAA.NDBC:LBRF1:1,2017-07-09T23:00:00Z,25.4840,-81.1330,1.5,16.26,1111122 
ENP,ioos.station.NOAA.NDBC:LBRF1:1,2017-07-10T00:00:00Z,25.4840,-81.1330,1.5,10.61,1111122 
ENP,ioos.station.NOAA.NDBC:LBRF1:1,2017-07-10T03:00:00Z,25.4840,-81.1330,1.5,3.26,1111122 
ENP,ioos.station.NOAA.NDBC:LBRF1:1,2017-07-10T06:00:00Z,25.4840,-81.1330,1.5,2.97,1111122 
ENP,ioos.station.NOAA.NDBC:LBRF1:1,2017-07-10T07:00:00Z,25.4840,-81.1330,1.5,3.06,1111122 
ENP,ioos.station.NOAA.NDBC:LBRF1:1,2017-07-10T08:00:00Z,25.4840,-81.1330,1.5,4.29,1111122 
ENP,ioos.station.NOAA.NDBC:LBRF1:1,2017-07-10T10:00:00Z,25.4840,-81.1330,1.5,11.84,1111122 
ENP,ioos.station.NOAA.NDBC:LBRF1:1,2017-07-10T11:00:00Z,25.4840,-81.1330,1.5,8.8,11111222 
ENP,ioos.station.NOAA.NDBC:LBRF1:1,2017-07-10T12:00:00Z,25.4840,-81.1330,1.5,4.87,1111122 
ENP,ioos.station.NOAA.NDBC:LBRF1:1,2017-07-10T13:00:00Z,25.4840,-81.1330,1.5,3.57,1111122 
ENP,ioos.station.NOAA.NDBC:LBRF1:1,2017-07-10T14:00:00Z,25.4840,-81.1330,1.5,3.24,1111122 
ENP,ioos.station.NOAA.NDBC:LBRF1:1,2017-07-10T15:00:00Z,25.4840,-81.1330,1.5,3.16,1111122 
ENP,ioos.station.NOAA.NDBC:LBRF1:1,2017-07-10T16:00:00Z,25.4840,-81.1330,1.5,3.09,1111122 
ENP,ioos.station.NOAA.NDBC:LBRF1:1,2017-07-10T17:00:00Z,25.4840,-81.1330,1.5,3.1,1111122 
ENP,ioos.station.NOAA.NDBC:LBRF1:1,2017-07-10T18:00:00Z,25.4840,-81.1330,1.5,4.58,1111122 
ENP,ioos.station.NOAA.NDBC:LBRF1:1,2017-07-10T19:00:00Z,25.4840,-81.1330,1.5,10.48,1111122 
ENP,ioos.station.NOAA.NDBC:LBRF1:1,2017-07-10T21:00:00Z,25.4840,-81.1330,1.5,21.7,11111222 
ENP,ioos.station.NOAA.NDBC:LBRF1:1,2017-07-10T22:00:00Z,25.4840,-81.1330,1.5,22.4,11111222 
ENP,ioos.station.NOAA.NDBC:LBRF1:1,2017-07-10T23:00:00Z,25.4840,-81.1330,1.5,17.21,1111122 
ENP,ioos.station.NOAA.NDBC:LBRF1:1,2017-07-11T00:00:00Z,25.4840,-81.1330,1.5,13.7,11111222 
ENP,ioos.station.NOAA.NDBC:LBRF1:1,2017-07-11T03:00:00Z,25.4840,-81.1330,1.5,3.41,1111122 
ENP,ioos.station.NOAA.NDBC:LBRF1:1,2017-07-11T06:00:00Z,25.4840,-81.1330,1.5,3.04,1111122 
ENP,ioos.station.NOAA.NDBC:LBRF1:1,2017-07-11T07:00:00Z,25.4840,-81.1330,1.5,3.08,1111122 
ENP,ioos.station.NOAA.NDBC:LBRF1:1,2017-07-11T08:00:00Z,25.4840,-81.1330,1.5,3.19,1111122 
ENP,ioos.station.NOAA.NDBC:LBRF1:1,2017-07-11T10:00:00Z,25.4840,-81.1330,1.5,8.37,1111122 
ENP,ioos.station.NOAA.NDBC:LBRF1:1,2017-07-11T11:00:00Z,25.4840,-81.1330,1.5,7.7,11111222 
ENP,ioos.station.NOAA.NDBC:LBRF1:1,2017-07-11T13:00:00Z,25.4840,-81.1330,1.5,3.5,11111222 
ENP,ioos.station.NOAA.NDBC:LBRF1:1,2017-07-11T14:00:00Z,25.4840,-81.1330,1.5,3.3,11111222 
ENP,ioos.station.NOAA.NDBC:LBRF1:1,2017-07-11T15:00:00Z,25.4840,-81.1330,1.5,3.2,1111122 
ENP,ioos.station.NOAA.NDBC:LBRF1:1,2017-07-11T17:00:00Z,25.4840,-81.1330,1.5,3.2,1111122 
ENP,ioos.station.NOAA.NDBC:LBRF1:1,2017-07-11T18:00:00Z,25.4840,-81.1330,1.5,4.38,1111122 
ENP,ioos.station.NOAA.NDBC:LBRF1:1,2017-07-11T19:00:00Z,25.4840,-81.1330,1.5,9.0,11111222 
ENP,ioos.station.NOAA.NDBC:LBRF1:1,2017-07-11T20:00:00Z,25.4840,-81.1330,1.5,16.0,11111222 
ENP,ioos.station.NOAA.NDBC:LBRF1:1,2017-07-11T21:00:00Z,25.4840,-81.1330,1.5,19.5,11111222 
ENP,ioos.station.NOAA.NDBC:LBRF1:1,2017-07-11T22:00:00Z,25.4840,-81.1330,1.5,20.6,11111222 
ENP,ioos.station.NOAA.NDBC:LBRF1:1,2017-07-11T23:00:00Z,25.4840,-81.1330,1.5,19.6,11111222 
ENP,ioos.station.NOAA.NDBC:LBRF1:1,2017-07-12T00:00:00Z,25.4840,-81.1330,1.5,14.8,1111122 
ENP,ioos.station.NOAA.NDBC:LBRF1:1,2017-07-12T03:00:00Z,25.4840,-81.1330,1.5,3.8,11111222 
ENP,ioos.station.NOAA.NDBC:LBRF1:1,2017-07-12T05:00:00Z,25.4840,-81.1330,1.5,3.25,1111122 
ENP,ioos.station.NOAA.NDBC:LBRF1:1,2017-07-12T06:00:00Z,25.4840,-81.1330,1.5,3.2,11111222 
ENP,ioos.station.NOAA.NDBC:LBRF1:1,2017-07-12T07:00:00Z,25.4840,-81.1330,1.5,3.2,11111222 
ENP,ioos.station.NOAA.NDBC:LBRF1:1,2017-07-12T08:00:00Z,25.4840,-81.1330,1.5,3.3,11111222 
ENP,ioos.station.NOAA.NDBC:LBRF1:1,2017-07-12T10:00:00Z,25.4840,-81.1330,1.5,10.61,1111122 
ENP,ioos.station.NOAA.NDBC:LBRF1:1,2017-07-12T11:00:00Z,25.4840,-81.1330,1.5,13.5,11111222 
ENP,ioos.station.NOAA.NDBC:LBRF1:1,2017-07-12T12:00:00Z,25.4840,-81.1330,1.5,11.7,11111222 
ENP,ioos.station.NOAA.NDBC:LBRF1:1,2017-07-12T13:00:00Z,25.4840,-81.1330,1.5,6.9,1111122 
ENP,ioos.station.NOAA.NDBC:LBRF1:1,2017-07-12T14:00:00Z,25.4840,-81.1330,1.5,4.16,1111122 
ENP,ioos.station.NOAA.NDBC:LBRF1:1,2017-07-12T15:00:00Z,25.4840,-81.1330,1.5,3.6,11111222 
ENP,ioos.station.NOAA.NDBC:LBRF1:1,2017-07-12T16:00:00Z,25.4840,-81.1330,1.5,3.4,11111222 
ENP,ioos.station.NOAA.NDBC:LBRF1:1,2017-07-12T17:00:00Z,25.4840,-81.1330,1.5,3.3,11111222 
ENP,ioos.station.NOAA.NDBC:LBRF1:1,2017-07-12T18:00:00Z,25.4840,-81.1330,1.5,3.3,11111222 
ENP,ioos.station.NOAA.NDBC:LBRF1:1,2017-07-12T19:00:00Z,25.4840,-81.1330,1.5,3.7,11111222 
ENP,ioos.station.NOAA.NDBC:LBRF1:1,2017-07-12T21:00:00Z,25.4840,-81.1330,1.5,19.9,11111222 
ENP,ioos.station.NOAA.NDBC:LBRF1:1,2017-07-12T22:00:00Z,25.4840,-81.1330,1.5,23.0,11111222 
ENP,ioos.station.NOAA.NDBC:LBRF1:1,2017-07-12T23:00:00Z,25.4840,-81.1330,1.5,23.46,1111122 
ENP,ioos.station.NOAA.NDBC:LBRF1:1,2017-07-13T00:00:00Z,25.4840,-81.1330,1.5,16.26,1111122 
ENP,ioos.station.NOAA.NDBC:LBRF1:1,2017-07-13T03:00:00Z,25.4840,-81.1330,1.5,4.1,11111222 
ENP,ioos.station.NOAA.NDBC:LBRF1:1,2017-07-13T06:00:00Z,25.4840,-81.1330,1.5,3.15,1111122 
ENP,ioos.station.NOAA.NDBC:LBRF1:1,2017-07-13T07:00:00Z,25.4840,-81.1330,1.5,3.09,1111122 
ENP,ioos.station.NOAA.NDBC:LBRF1:1,2017-07-13T08:00:00Z,25.4840,-81.1330,1.5,3.09,1111122 
ENP,ioos.station.NOAA.NDBC:LBRF1:1,2017-07-13T10:00:00Z,25.4840,-81.1330,1.5,3.93,1111122 
ENP,ioos.station.NOAA.NDBC:LBRF1:1,2017-07-13T11:00:00Z,25.4840,-81.1330,1.5,10.3,11111222 
ENP,ioos.station.NOAA.NDBC:LBRF1:1,2017-07-13T13:00:00Z,25.4840,-81.1330,1.5,10.5,11111222 
ENP,ioos.station.NOAA.NDBC:LBRF1:1,2017-07-13T14:00:00Z,25.4840,-81.1330,1.5,5.5,11111222 
ENP,ioos.station.NOAA.NDBC:LBRF1:1,2017-07-13T15:00:00Z,25.4840,-81.1330,1.5,3.8,11111222 
ENP,ioos.station.NOAA.NDBC:LBRF1:1,2017-07-13T16:00:00Z,25.4840,-81.1330,1.5,3.41,1111122 
ENP,ioos.station.NOAA.NDBC:LBRF1:1,2017-07-13T17:00:00Z,25.4840,-81.1330,1.5,3.28,1111122 
ENP,ioos.station.NOAA.NDBC:LBRF1:1,2017-07-13T18:00:00Z,25.4840,-81.1330,1.5,3.2,11111222 
ENP,ioos.station.NOAA.NDBC:LBRF1:1,2017-07-13T19:00:00Z,25.4840,-81.1330,1.5,3.2,11111222 
ENP,ioos.station.NOAA.NDBC:LBRF1:1,2017-07-13T20:00:00Z,25.4840,-81.1330,1.5,3.2,11111222 
ENP,ioos.station.NOAA.NDBC:LBRF1:1,2017-07-13T21:00:00Z,25.4840,-81.1330,1.5,6.18,1111122 
ENP,ioos.station.NOAA.NDBC:LBRF1:1,2017-07-13T22:00:00Z,25.4840,-81.1330,1.5,12.2,11111222 
ENP,ioos.station.NOAA.NDBC:LBRF1:1,2017-07-13T23:00:00Z,25.4840,-81.1330,1.5,16.9,11111222 
ENP,ioos.station.NOAA.NDBC:LBRF1:1,2017-07-14T00:00:00Z,25.4840,-81.1330,1.5,17.54,1111122 
ENP,ioos.station.NOAA.NDBC:LBRF1:1,2017-07-14T03:00:00Z,25.4840,-81.1330,1.5,3.55,1111122 
ENP,ioos.station.NOAA.NDBC:LBRF1:1,2017-07-14T06:00:00Z,25.4840,-81.1330,1.5,2.95,1111122 
ENP,ioos.station.NOAA.NDBC:LBRF1:1,2017-07-14T07:00:00Z,25.4840,-81.1330,1.5,2.9,11111222 
ENP,ioos.station.NOAA.NDBC:LBRF1:1,2017-07-14T08:00:00Z,25.4840,-81.1330,1.5,2.9,11111222 
ENP,ioos.station.NOAA.NDBC:LBRF1:1,2017-07-14T10:00:00Z,25.4840,-81.1330,1.5,3.24,1111122 
ENP,ioos.station.NOAA.NDBC:LBRF1:1,2017-07-14T11:00:00Z,25.4840,-81.1330,1.5,8.5,11111222 
ENP,ioos.station.NOAA.NDBC:LBRF1:1,2017-07-14T12:00:00Z,25.4840,-81.1330,1.5,12.9,11111222 
ENP,ioos.station.NOAA.NDBC:LBRF1:1,2017-07-14T13:00:00Z,25.4840,-81.1330,1.5,14.0,1111122 
ENP,ioos.station.NOAA.NDBC:LBRF1:1,2017-07-14T14:00:00Z,25.4840,-81.1330,1.5,7.0,11111222 
ENP,ioos.station.NOAA.NDBC:LBRF1:1,2017-07-14T15:00:00Z,25.4840,-81.1330,1.5,4.34,1111122 
ENP,ioos.station.NOAA.NDBC:LBRF1:1,2017-07-14T16:00:00Z,25.4840,-81.1330,1.5,3.44,1111122 
ENP,ioos.station.NOAA.NDBC:LBRF1:1,2017-07-14T17:00:00Z,25.4840,-81.1330,1.5,3.2,1111122 
ENP,ioos.station.NOAA.NDBC:LBRF1:1,2017-07-14T18:00:00Z,25.4840,-81.1330,1.5,3.1,11111222 
ENP,ioos.station.NOAA.NDBC:LBRF1:1,2017-07-14T19:00:00Z,25.4840,-81.1330,1.5,3.0,11111222 
ENP,ioos.station.NOAA.NDBC:LBRF1:1,2017-07-14T21:00:00Z,25.4840,-81.1330,1.5,8.1,11111222 
ENP,ioos.station.NOAA.NDBC:LBRF1:1,2017-07-14T22:00:00Z,25.4840,-81.1330,1.5,10.23,1111122 
ENP,ioos.station.NOAA.NDBC:LBRF1:1,2017-07-14T23:00:00Z,25.4840,-81.1330,1.5,14.5,11111222 
ENP,ioos.station.NOAA.NDBC:LBRF1:1,2017-07-15T00:00:00Z,25.4840,-81.1330,1.5,16.53,1111122 
ENP,ioos.station.NOAA.NDBC:LBRF1:1,2017-07-15T03:00:00Z,25.4840,-81.1330,1.5,7.2,11111222 
ENP,ioos.station.NOAA.NDBC:LBRF1:1,2017-07-15T06:00:00Z,25.4840,-81.1330,1.5,2.95,1111122 
ENP,ioos.station.NOAA.NDBC:LBRF1:1,2017-07-15T07:00:00Z,25.4840,-81.1330,1.5,2.9,11111222 
ENP,ioos.station.NOAA.NDBC:LBRF1:1,2017-07-15T08:00:00Z,25.4840,-81.1330,1.5,2.9,11111222 
ENP,ioos.station.NOAA.NDBC:LBRF1:1,2017-07-15T10:00:00Z,25.4840,-81.1330,1.5,3.01,1111122 
ENP,ioos.station.NOAA.NDBC:LBRF1:1,2017-07-15T11:00:00Z,25.4840,-81.1330,1.5,7.1,11111222 
ENP,ioos.station.NOAA.NDBC:LBRF1:1,2017-07-15T13:00:00Z,25.4840,-81.1330,1.5,16.3,11111222 
ENP,ioos.station.NOAA.NDBC:LBRF1:1,2017-07-15T14:00:00Z,25.4840,-81.1330,1.5,16.5,11111222 
ENP,ioos.station.NOAA.NDBC:LBRF1:1,2017-07-15T15:00:00Z,25.4840,-81.1330,1.5,8.0,11111222 
ENP,ioos.station.NOAA.NDBC:LBRF1:1,2017-07-15T16:00:00Z,25.4840,-81.1330,1.5,4.6,11111222 
ENP,ioos.station.NOAA.NDBC:LBRF1:1,2017-07-15T17:00:00Z,25.4840,-81.1330,1.5,3.4,11111222 